Park Rapids, MN

5:00 PM CDT on April 26, 2017 (GMT -0500)
Park Rapids Municipal

Weather History for KPKD - June, 2014

Change the Weather History Date:

Wednesday, June 11, 2014

  Actual Average Record
Temperature  
Mean Temperature 60 °F -  
Max Temperature 66 °F 76 °F 94 °F (1956)
Min Temperature 55 °F 51 °F 35 °F (1958)
Degree Days  
Heating Degree Days 4    
Growing Degree Days 10 (Base 50)    
Moisture  
Dew Point 57 °F    
Average Humidity 90    
Maximum Humidity 100    
Minimum Humidity 65    
Precipitation  
Precipitation 1.06 in - - ()
Sea Level Pressure  
Sea Level Pressure 29.74 in    
Wind  
Wind Speed 7 mph (NE)    
Max Wind Speed 18 mph    
Max Gust Speed 20 mph    
Visibility 7 miles    
Events Rain    
Averages and records for this station are not official NWS values.
T = Trace of Precipitation, MM = Missing Value Source: NWS Daily Summary

Daily Weather History Graph

Daily Weather History Graph

Search for Another Location

Airport or City:

Trip Planner

Search our weather history database for the weather conditions in past years. The results will help you decide how hot, cold, wet, or windy it might be!

Date:

Astronomy

Jun. 11, 2014 Rise Set
Actual Time 5:25 AM CDT 9:14 PM CDT
Civil Twilight 4:46 AM CDT 9:54 PM CDT
Nautical Twilight 3:52 AM CDT 10:47 PM CDT
Astronomical Twilight 2:34 AM CDT 12:06 AM CDT
Moon 7:39 PM CDT (6/11) 4:23 AM CDT (6/11)
Length of Visible Light 17h 08m
Length of Day
15h 49m
Waxing Gibbous, 97% of the Moon is Illuminated
Jun 11
Waxing Gibbous
Jun 12
Full
Jun 19
Last Quarter
Jun 27
New
Jul 5
First Quarter

Hourly Weather History & Observations

Time (CDT) Temp. Dew Point Humidity Pressure Visibility Wind Dir Wind Speed Gust Speed Precip Events Conditions
12:53 AM 62.1 °F 53.1 °F 72% 29.85 in 10.0 mi South 8.1 mph - N/A   Clear
1:53 AM 61.0 °F 54.0 °F 78% 29.86 in 10.0 mi SSE 4.6 mph - N/A   Overcast
2:53 AM 61.0 °F 53.1 °F 75% 29.86 in 10.0 mi South 8.1 mph - N/A   Partly Cloudy
3:53 AM 60.1 °F 52.0 °F 75% 29.82 in 10.0 mi SE 6.9 mph - N/A   Clear
4:53 AM 57.9 °F 52.0 °F 81% 29.82 in 10.0 mi SE 8.1 mph - N/A   Clear
5:53 AM 57.9 °F 52.0 °F 81% 29.81 in 10.0 mi SE 6.9 mph - N/A   Clear
6:53 AM 59.0 °F 52.0 °F 78% 29.81 in 10.0 mi SE 5.8 mph - N/A   Clear
7:53 AM 63.0 °F 53.1 °F 70% 29.81 in 10.0 mi SE 5.8 mph - N/A   Clear
8:53 AM 64.9 °F 53.1 °F 65% 29.80 in 10.0 mi SE 8.1 mph - N/A   Clear
9:53 AM 66.0 °F 55.0 °F 68% 29.79 in 10.0 mi SSE 9.2 mph - N/A   Clear
10:53 AM 64.9 °F 57.0 °F 75% 29.78 in 8.0 mi Variable 3.5 mph - 0.00 in Rain Light Rain
11:53 AM 64.0 °F 60.1 °F 87% 29.80 in 9.0 mi South 9.2 mph - 0.02 in Rain Light Rain
12:04 PM 63.0 °F 60.1 °F 90% 29.80 in 5.0 mi South 6.9 mph - 0.01 in Rain Light Rain
12:36 PM 62.1 °F 60.1 °F 93% 29.80 in 3.0 mi SSW 4.6 mph - 0.07 in Rain Rain
12:53 PM 62.1 °F 60.1 °F 93% 29.80 in 6.0 mi South 4.6 mph - 0.08 in Rain Light Rain
1:34 PM 62.1 °F 60.1 °F 93% 29.79 in 1.8 mi Calm Calm - 0.08 in Rain Rain
1:53 PM 61.0 °F 61.0 °F 100% 29.78 in 1.8 mi East 4.6 mph - 0.15 in Rain Rain
2:03 PM 61.0 °F 60.1 °F 97% 29.77 in 2.0 mi ESE 3.5 mph - 0.03 in Rain Heavy Rain
2:23 PM 61.0 °F 59.0 °F 93% 29.77 in 4.0 mi East 4.6 mph - 0.06 in Rain Light Rain
2:53 PM 61.0 °F 60.1 °F 97% 29.76 in 5.0 mi ESE 5.8 mph - 0.06 in Rain Light Rain
3:53 PM 61.0 °F 60.1 °F 97% 29.73 in 3.0 mi NE 10.4 mph - 0.05 in Rain Rain
4:24 PM 61.0 °F 59.0 °F 93% 29.73 in 8.0 mi East 6.9 mph - 0.07 in Rain Light Rain
4:35 PM 62.1 °F 57.9 °F 86% 29.73 in 9.0 mi NE 6.9 mph - 0.07 in Rain Light Rain
4:42 PM 61.0 °F 59.0 °F 93% 29.73 in 4.0 mi North 4.6 mph - 0.09 in Rain Rain
4:53 PM 60.1 °F 60.1 °F 100% 29.73 in 1.5 mi NNE 4.6 mph - 0.17 in Rain Heavy Rain
5:11 PM 60.1 °F 59.0 °F 96% 29.72 in 3.0 mi North 8.1 mph - 0.08 in Rain Light Rain
5:29 PM 61.0 °F 59.0 °F 93% 29.71 in 5.0 mi Variable 4.6 mph - 0.10 in Rain Light Rain
5:40 PM 60.1 °F 59.0 °F 96% 29.71 in 6.0 mi NNE 5.8 mph - 0.11 in Rain Light Rain
5:49 PM 60.8 °F 59.0 °F 94% 29.70 in 8.0 mi North 8.1 mph - 0.11 in Rain Light Rain
5:53 PM 60.1 °F 59.0 °F 96% 29.71 in 9.0 mi NNE 8.1 mph - 0.11 in Rain Light Rain
6:36 PM 60.1 °F 59.0 °F 96% 29.68 in 6.0 mi NNE 9.2 mph - 0.02 in Rain Light Rain
6:53 PM 60.1 °F 59.0 °F 96% 29.69 in 9.0 mi North 11.5 mph - 0.02 in Rain Light Rain
7:10 PM 60.1 °F 59.0 °F 96% 29.68 in 10.0 mi NNE 10.4 mph - 0.00 in   Overcast
7:53 PM 60.1 °F 57.9 °F 93% 29.69 in 10.0 mi North 11.5 mph - 0.00 in Rain Light Rain
8:13 PM 57.9 °F 57.0 °F 97% 29.68 in 1.8 mi NNE 8.1 mph - 0.12 in Rain Heavy Rain
8:25 PM 57.9 °F 57.0 °F 97% 29.68 in 3.0 mi NNE 6.9 mph - 0.16 in Rain Light Rain
8:53 PM 57.9 °F 57.0 °F 97% 29.67 in 10.0 mi North 10.4 mph - 0.17 in Rain Light Rain
9:23 PM 57.0 °F 55.9 °F 96% 29.69 in 8.0 mi NNW 9.2 mph - 0.02 in Rain Light Rain
9:53 PM 55.9 °F 55.9 °F 100% 29.68 in 5.0 mi North 6.9 mph 19.6 mph 0.13 in Rain Rain
10:25 PM 55.9 °F 55.0 °F 97% 29.66 in 10.0 mi North 15.0 mph - 0.00 in   Overcast
10:33 PM 55.9 °F 55.0 °F 97% 29.68 in 10.0 mi NNW 13.8 mph - 0.00 in   Overcast
10:53 PM 55.9 °F 54.0 °F 93% 29.67 in 10.0 mi North 15.0 mph - 0.00 in   Overcast
11:07 PM 55.9 °F 54.0 °F 93% 29.66 in 10.0 mi North 18.4 mph - N/A   Overcast
11:53 PM 55.9 °F 54.0 °F 93% 29.68 in 10.0 mi NW 18.4 mph - 0.10 in Rain Light Rain